Location: Go�ngahuizen
(53.0821°N, 5.8849°E)
Time: 23:24:36
(UTC+00:00)

Cosmos 1763 Rocket - Pass Details

Date: 09 April 2020
Orbit: 734 x 779 km, 74.0° (Epoch: 29 May)

Event Time Altitude Azimuth Distance (km) Brightness Sun altitude
Rises 19:40:10 0° 335° (NNW) 3,237 7.7 -11.1°
Reaches altitude 10° 19:42:38 10° 340° (NNW) 2,300 6.8 -11.4°
Maximum altitude 19:47:44 52° 57° (ENE) 933 3.8 -12.0°
Enters shadow 19:51:27 18° 129° (SE) 1,796 4.8 -12.5°
